Location: Eldred Sherwood Park Lake Dam
(42.9416°N, 93.5655°W)
Time: 10:03:34
(UTC+00:00)

Transit 2A Rocket - All Passes

Search period start: 07 November 2024 00:00
Search period end: 17 November 2024 00:00
Orbit: 584 x 906 km, 66.7° (Epoch: 06 November)

Date Brightness Start Highest point End Pass type
(mag) Time Alt. Az. Time Alt. Az. Time Alt. Az.
07 Nov - 01:12:06 10° NNW 01:17:16 52° NE 01:21:57 10° SE visible
07 Nov - 02:55:33 10° WNW 02:59:12 20° WSW 03:02:38 10° SSW visible
07 Nov - 15:45:06 10° S 15:50:32 36° ESE 15:55:54 10° NE daylight
07 Nov - 17:27:13 10° WSW 17:32:58 43° NW 17:38:34 10° NNE daylight
07 Nov - 19:14:55 10° NW 19:16:58 12° NNW 19:18:59 10° N daylight
08 Nov - 00:27:47 10° NNW 00:32:30 31° NE 00:36:49 10° ESE visible
08 Nov - 02:10:17 10° NW 02:15:00 37° WSW 02:19:18 10° S visible
08 Nov - 15:01:53 10° SSE 15:06:17 21° ESE 15:10:37 10° ENE daylight
08 Nov - 16:42:14 10° SW 16:48:16 69° WNW 16:54:10 10° NNE daylight
08 Nov - 18:28:03 10° WNW 18:31:48 17° NW 18:35:27 10° N daylight
08 Nov - 23:43:38 10° N 23:47:34 20° NE 23:51:14 10° E visible
09 Nov - 01:25:28 10° NW 01:30:38 70° WSW 01:35:18 10° SSE visible
09 Nov - 14:20:12 10° ESE 14:22:08 12° ESE 14:24:04 10° E daylight
09 Nov - 15:57:40 10° SSW 16:03:43 74° ESE 16:09:37 10° NE daylight
09 Nov - 17:41:57 10° W 17:46:45 24° NW 17:51:27 10° N daylight
09 Nov - 22:59:48 10° N 23:02:29 14° NNE 23:05:03 10° ENE daylight
10 Nov - 00:40:53 10° NNW 00:46:06 66° ENE 00:50:47 10° SE visible
10 Nov - 02:24:57 10° WNW 02:27:48 15° WSW 02:30:32 10° SW visible
10 Nov - 15:13:34 10° S 15:19:16 44° ESE 15:24:52 10° NE daylight
10 Nov - 16:56:20 10° WSW 17:01:52 36° NW 17:07:15 10° NNE daylight
10 Nov - 18:45:58 10° NNW 18:46:04 10° NNW 18:46:10 10° NNW daylight
10 Nov - 23:56:29 10° NNW 00:01:24 38° NE 00:05:50 10° ESE visible
11 Nov - 01:39:19 10° NW 01:43:39 29° WSW 01:47:38 10° SSW visible
11 Nov - 14:30:02 10° SSE 14:34:57 26° ESE 14:39:47 10° NE daylight
11 Nov - 16:11:09 10° SW 16:17:07 57° NW 16:22:54 10° NNE daylight
11 Nov - 17:57:42 10° WNW 18:00:49 14° NW 18:03:53 10° N daylight
11 Nov - 23:12:16 10° N 23:16:30 24° NE 23:20:26 10° E daylight
12 Nov - 00:54:21 10° NW 00:59:20 53° WSW 01:03:52 10° SSE visible
12 Nov - 13:47:28 10° SE 13:50:44 15° ESE 13:53:58 10° ENE daylight
12 Nov - 15:26:24 10° SSW 15:32:29 90° ESE 15:38:24 10° NNE daylight
12 Nov - 17:11:18 10° W 17:15:43 21° NW 17:20:00 10° N daylight
12 Nov - 22:28:15 10° N 22:31:27 16° NE 22:34:31 10° ENE daylight
13 Nov - 00:09:39 10° NNW 00:14:51 83° ENE 00:19:32 10° SSE visible
13 Nov - 01:54:48 10° W 01:56:20 11° WSW 01:57:51 10° WSW visible
13 Nov - 14:42:06 10° S 14:47:59 55° ESE 14:53:44 10° NE daylight
13 Nov - 16:25:29 10° WSW 16:30:46 30° NW 16:35:51 10° NNE daylight
13 Nov - 21:44:56 10° NNE 21:46:16 11° NNE 21:47:35 10° NE daylight
13 Nov - 23:25:11 10° NNW 23:30:12 47° NE 23:34:45 10° SE visible
14 Nov - 01:08:25 10° WNW 01:12:13 22° WSW 01:15:47 10° SSW visible
14 Nov - 13:58:18 10° S 14:03:35 32° ESE 14:08:47 10° NE daylight
14 Nov - 15:40:07 10° SW 15:45:56 47° NW 15:51:34 10° NNE daylight
14 Nov - 17:27:30 10° NW 17:29:50 12° NNW 17:32:07 10° N daylight
14 Nov - 22:40:52 10° NNW 22:45:22 28° NE 22:49:31 10° ESE daylight
15 Nov - 00:23:13 10° NW 00:27:57 41° WSW 00:32:18 10° S visible
15 Nov - 13:15:14 10° SSE 13:19:19 19° ESE 13:23:20 10° ENE daylight
15 Nov - 14:55:11 10° SW 15:01:15 75° WNW 15:07:07 10° NNE daylight
15 Nov - 16:40:45 10° W 16:44:40 18° NW 16:48:28 10° N daylight
15 Nov - 21:56:45 10° N 22:00:23 19° NE 22:03:48 10° E daylight
15 Nov - 23:38:25 10° NNW 23:43:32 78° WSW 23:48:10 10° SSE visible
16 Nov - 12:34:40 10° ESE 12:35:10 10° E 12:35:39 10° E visible
16 Nov - 14:10:41 10° SSW 14:16:40 68° ESE 14:22:30 10° NE daylight
16 Nov - 15:54:41 10° W 15:59:37 26° NW 16:04:25 10° N daylight
16 Nov - 21:13:02 10° N 21:15:15 12° NNE 21:17:23 10° ENE daylight
16 Nov - 22:53:51 10° NNW 22:58:57 59° NE 23:03:33 10° SE daylight
